Temperature
15 15 16 16 13 11 13 14 15 16 17 17 17 17 16 16 16 16 15 15 15 15 15 15 15 15 15 16 16 16 16 16 16 16 16 16 16 15 15 15 15 15 15 15 15 15 15 15 15
15 15 15 15 12 12 13 14 15 16 17 17 17 16 15 15 15 15 15 15 15 15 15 15 15 15 15 16 16 16 16 16 15 15 15 15 15 15 15 15 15 15 15 15 15 15 15 15 15
14 15 15 11 12 12 14 15 15 16 17 17 16 15 15 14 14 14 15 15 15 15 15 15 15 15 15 15 15 15 16 15 15 15 15 15 15 15 15 15 15 15 15 15 15 15 15 14 14
15 15 14 11 13 13 14 15 15 15 16 16 15 14 14 14 14 14 14 15 15 15 15 15 15 15 15 15 15 15 15 15 15 15 15 15 15 15 15 15 15 15 15 15 15 15 14 14 14
14 14 12 11 13 13 13 15 15 15 15 15 14 13 13 13 13 14 14 14 15 15 15 14 14 14 14 15 15 15 15 15 15 15 15 15 15 15 15 15 15 15 15 15 14 14 14 14 14
14 11 11 11 12 13 14 15 15 14 14 15 14 12 12 13 13 13 14 14 14 14 14 14 14 14 14 14 14 14 14 15 14 15 15 15 15 14 14 14 14 15 14 14 14 14 14 14 14
12 10 11 12 12 13 14 15 14 13 13 14 14 12 12 12 13 13 13 14 14 14 14 14 14 14 14 14 14 14 14 14 14 14 15 15 14 14 14 14 14 14 14 14 14 14 14 14 14
13 10 11 11 12 13 14 14 14 13 13 13 14 12 11 12 12 12 13 13 13 13 13 13 13 13 14 14 14 14 14 14 14 14 14 14 14 14 14 14 14 14 14 14 13 13 13 13 13
13 9 10 11 12 13 13 13 13 13 13 12 12 12 12 12 12 12 12 12 13 12 13 13 13 13 13 13 13 13 13 13 14 14 14 14 14 14 14 14 13 13 13 13 13 13 13 13 13
11 9 11 12 12 12 12 12 12 12 11 11 11 11 11 11 12 12 12 12 12 12 12 12 12 13 13 13 13 13 13 13 13 13 13 13 13 13 13 13 13 13 13 13 13 13 13 13 13
10 10 11 12 12 12 12 12 12 11 10 10 10 11 11 11 11 11 11 11 12 12 12 12 12 12 12 13 12 13 13 13 13 13 13 13 13 13 13 13 13 13 13 13 13 13 12 12 13
10 10 11 11 12 12 11 11 11 11 11 11 11 11 11 11 10 10 11 11 11 11 12 12 12 12 12 12 12 12 12 12 12 12 13 13 13 13 13 13 13 12 12 12 12 12 12 12 12
10 10 11 11 11 11 11 10 10 10 11 11 11 10 10 10 10 10 10 10 11 11 11 11 11 11 12 12 12 12 12 12 12 12 12 12 12 12 12 12 12 12 12 12 12 12 12 12 12
10 10 10 11 11 11 10 9 9 10 10 10 10 10 10 10 10 10 10 10 10 10 11 11 11 11 11 11 11 11 12 12 12 12 12 12 12 12 12 12 12 12 12 12 11 11 11 11 11
10 9 9 10 10 10 10 9 8 10 10 10 9 9 9 9 9 9 9 10 10 10 10 10 10 11 11 11 11 11 11 11 11 11 11 11 11 11 11 11 11 11 11 11 11 11 11 11 11
9 8 8 9 10 10 9 8 8 9 9 9 8 8 9 9 9 9 9 9 9 10 10 10 10 10 10 10 10 10 10 10 11 11 11 11 11 11 11 11 11 11 11 11 11 10 11 10 10
8 7 8 8 9 9 8 8 8 9 8 8 8 8 8 8 8 8 8 9 9 9 9 9 9 9 10 10 10 10 10 10 10 10 10 10 10 10 10 10 10 10 10 10 10 10 10 10 10
7 7 8 8 8 8 7 7 7 8 8 7 7 7 7 7 7 8 8 8 8 8 8 9 9 9 9 9 9 9 9 9 9 9 9 9 9 9 10 10 10 10 10 10 10 10 10 10 10
8 8 7 8 8 8 7 6 7 7 7 6 6 6 6 6 7 7 7 8 8 8 8 8 8 8 8 8 8 8 8 8 8 9 9 9 9 9 9 9 9 9 9 10 9 9 9 9 9
8 7 7 7 8 7 6 6 6 6 6 6 6 6 6 6 6 7 7 7 7 7 7 7 7 7 7 7 7 7 7 8 8 8 8 8 8 8 8 8 9 9 9 9 9 9 9 9 8
7 7 7 7 7 7 6 6 6 6 6 6 6 6 6 6 6 6 6 6 7 7 7 7 7 7 7 7 7 7 7 7 7 7 7 8 8 8 8 8 8 8 8 8 8 8 8 8 8
7 7 7 7 6 5 6 5 6 5 5 5 5 5 5 5 5 5 5 6 6 6 6 6 6 6 6 6 6 7 6 7 7 7 7 7 7 7 7 7 7 7 8 8 8 8 7 7 7
7 7 7 6 6 5 5 5 5 4 5 5 4 5 5 5 5 5 5 5 5 5 5 5 5 5 6 6 6 6 6 6 6 6 6 6 7 7 7 7 7 7 7 7 7 7 7 7 6
7 6 5 4 4 4 5 4 5 4 4 4 4 4 5 4 5 4 5 5 5 5 5 5 5 5 5 5 5 5 5 5 6 6 6 6 6 6 6 6 6 6 6 6 6 6 6 6 6
6 4 4 4 3 4 5 4 4 4 4 4 4 4 4 4 4 4 4 4 4 4 4 4 4 4 4 4 4 4 4 5 5 5 5 5 5 5 5 5 5 5 6 6 6 6 6 6 5
5 5 4 5 4 4 4 4 4 4 4 4 4 4 4 4 4 4 3 3 3 3 4 4 4 4 4 4 4 4 4 4 4 4 4 4 4 4 4 5 5 5 5 5 5 5 5 5 5
5 4 4 3 3 3 3 3 4 4 3 3 3 3 3 3 3 3 3 3 3 3 3 3 3 3 3 3 3 3 3 3 3 3 3 3 3 4 4 4 4 4 4 4 4 4 4 4 4
5 4 3 3 4 4 4 3 4 3 3 2 2 2 2 3 2 2 2 2 2 2 2 3 3 3 3 2 2 2 3 3 3 3 3 3 3 3 3 3 3 3 3 3 4 4 4 4 4
4 4 3 2 3 3 3 4 4 3 3 2 1 2 2 2 2 2 2 2 2 2 2 2 2 2 2 2 2 2 2 2 2 2 2 2 2 3 3 3 3 3 3 3 3 3 3 3 3
4 4 3 3 2 2 2 3 3 2 2 2 1 2 2 2 2 2 2 1 1 1 1 1 1 1 1 1 1 1 1 2 2 2 2 2 2 2 2 2 2 2 2 2 2 3 2 3 3
Wind_Speed
10 8 2 4 5 4 3 5 3 2 1 1 1 5 6 4 2 4 1 3 5 6 6 8 8 10 10 11 11 12 12 11 12 12 12 12 12 12 13 12 12 12 13 12 12 12 12 12 12
6 3 5 5 5 2 5 4 3 3 3 0 3 4 5 3 2 4 1 2 6 6 6 7 9 10 10 10 10 11 12 11 11 11 12 12 12 12 12 12 12 12 12 12 12 12 12 12 12
4 2 4 4 4 6 5 3 3 1 0 1 3 4 3 2 2 2 0 2 5 5 6 7 10 10 10 10 10 11 11 11 11 11 11 12 11 11 11 11 11 11 11 11 11 11 12 12 11
3 4 4 3 4 5 5 3 1 1 3 3 3 4 2 3 1 0 1 4 6 4 5 6 9 10 10 10 10 10 11 11 10 10 11 11 11 11 10 10 10 11 10 10 10 11 11 11 11
4 4 3 1 4 3 3 3 1 1 1 2 3 3 1 3 4 5 4 5 6 4 4 6 8 8 9 10 10 10 10 10 10 10 10 10 10 11 10 10 10 10 10 10 10 11 11 10 10
4 4 3 3 4 3 2 2 1 1 1 2 3 3 1 2 5 5 5 4 4 3 4 5 6 6 7 8 9 9 9 10 10 10 10 10 9 10 10 10 9 9 9 10 10 10 10 10 9
4 4 4 4 3 2 2 2 1 1 1 1 2 4 1 2 3 3 4 5 5 4 3 3 5 5 5 6 7 8 8 9 9 10 10 10 9 9 9 9 9 9 9 9 9 9 9 9 8
4 4 2 2 3 3 2 2 1 2 0 2 2 4 2 2 1 4 5 5 5 5 4 3 3 4 4 4 6 7 8 9 9 9 10 10 9 9 9 8 8 8 8 8 9 8 8 8 7
3 3 3 3 3 2 1 2 2 2 2 3 3 1 1 2 4 6 5 5 5 5 4 3 3 3 3 4 4 6 6 8 8 8 9 9 7 7 7 7 8 8 8 8 8 8 7 7 6
3 4 5 3 2 2 1 0 0 2 2 2 3 4 4 4 5 5 4 3 3 3 4 3 3 2 3 2 2 3 4 5 6 6 7 6 6 6 6 7 7 7 7 8 7 7 6 5 4
3 5 3 2 1 1 1 1 1 2 2 3 3 2 3 4 4 3 2 1 1 1 2 3 4 2 2 2 2 2 3 3 4 5 6 6 6 5 5 5 5 5 6 5 5 5 4 3 3
2 3 3 2 2 1 1 1 1 2 5 4 5 5 4 3 2 1 1 0 1 2 2 2 4 3 2 2 1 2 2 2 2 4 6 5 4 3 3 3 3 4 4 4 4 3 3 3 3
2 3 2 2 2 1 0 1 2 3 3 2 4 4 3 3 2 1 1 1 2 2 2 3 3 3 2 2 1 2 1 2 2 3 4 5 4 4 3 3 3 3 3 3 3 3 3 2 2
2 2 3 3 3 2 2 2 1 4 2 3 4 3 3 2 1 1 2 1 1 2 2 2 2 4 2 1 1 1 1 1 2 3 3 5 5 4 4 4 3 3 3 3 3 3 3 2 2
0 1 4 3 3 2 1 3 4 4 3 3 2 2 1 1 1 1 1 0 0 1 1 2 1 3 2 1 1 1 1 2 2 2 3 4 4 4 4 4 3 3 4 3 3 2 2 2 1
2 1 3 4 2 2 2 6 4 2 4 3 1 1 1 1 1 1 0 0 1 1 1 1 1 1 1 1 1 1 0 1 1 1 2 3 4 4 4 4 4 3 4 3 3 3 2 1 1
1 1 3 4 2 1 3 6 4 2 3 3 2 1 1 1 1 1 1 0 1 1 1 1 1 0 0 1 1 1 1 0 1 1 1 2 3 4 3 3 3 4 3 3 3 2 2 2 1
4 3 3 4 3 1 3 6 5 3 4 4 3 2 2 1 1 1 1 1 1 1 1 1 1 0 1 1 2 1 1 1 0 1 1 1 2 2 3 2 4 5 4 3 3 3 2 2 1
3 3 4 5 3 1 4 5 6 4 3 3 3 2 2 1 1 1 2 3 3 3 2 2 1 1 1 1 1 0 1 1 1 0 1 1 2 2 1 2 2 4 4 4 4 3 2 1 2
3 3 3 3 2 1 2 5 5 3 3 4 5 3 2 0 2 3 3 4 3 2 2 2 1 0 0 1 1 1 0 1 1 0 1 1 2 2 2 2 2 2 3 4 4 3 2 1 1
3 5 4 3 4 2 1 5 3 2 1 1 1 2 1 2 0 1 2 3 3 3 2 2 1 1 1 1 1 2 1 1 0 0 1 1 1 1 2 2 2 2 3 4 4 4 3 3 2
4 3 3 2 0 3 1 3 5 2 2 1 0 1 1 1 1 1 1 2 2 2 2 2 2 1 1 1 1 1 1 1 1 1 1 1 1 1 1 2 2 2 3 4 5 4 3 3 3
4 1 1 2 2 1 1 2 5 1 2 3 2 2 1 1 1 1 1 1 2 3 2 2 2 2 2 1 2 2 1 0 1 1 1 1 1 1 1 2 2 3 3 4 4 4 4 3 4
1 3 4 4 3 2 4 4 4 3 4 3 2 1 0 1 1 2 2 3 3 3 3 3 3 2 2 2 1 2 2 1 1 1 1 1 1 1 1 2 2 3 3 3 4 4 5 4 4
3 4 3 3 2 5 2 3 5 4 2 3 3 2 0 1 1 2 3 3 4 4 3 3 3 2 2 2 1 0 1 1 1 1 1 1 1 1 2 1 2 3 3 3 3 4 5 5 5
3 6 5 4 4 4 2 3 4 3 1 1 2 2 2 2 1 1 1 2 3 3 3 3 2 2 2 1 1 0 0 0 1 1 1 1 2 2 2 2 2 3 4 3 3 3 4 4 5
3 3 4 4 1 1 4 4 4 1 3 3 3 3 2 1 1 1 2 2 2 3 3 2 2 2 2 1 1 1 1 0 1 1 1 1 2 2 2 2 3 3 4 4 3 3 4 4 5
2 4 4 4 3 3 4 4 4 3 2 1 1 0 1 1 1 2 2 2 2 2 3 2 2 1 1 1 1 1 1 1 1 1 2 2 3 3 3 3 3 3 4 3 3 3 4 4 4
2 2 3 3 3 4 3 5 3 5 3 2 2 1 1 1 1 2 2 2 3 3 3 3 3 3 2 2 1 1 1 1 1 1 2 2 2 2 2 3 3 4 4 3 3 3 3 4 4
2 4 5 4 4 3 3 5 2 1 1 2 2 2 1 1 1 2 2 2 3 3 3 3 3 3 2 2 2 2 2 1 1 2 3 2 2 2 2 2 2 3 3 3 3 4 3 4 5
Wind_Direction
335 339 47 57 59 58 238 252 240 298 317 292 51 95 109 99 119 151 145 134 132 148 155 145 137 126 122 121 123 125 121 117 119 121 119 118 117 116 115 112 113 115 116 115 114 112 110 110 110
338 1 54 63 100 157 257 250 239 248 217 258 31 65 79 71 65 101 84 135 133 142 145 146 139 131 125 123 124 128 125 123 120 121 123 122 120 118 116 115 114 115 117 116 113 112 112 111 111
335 57 83 86 144 187 215 229 213 271 1 79 44 40 81 85 62 125 243 128 122 128 135 147 140 134 130 127 124 128 129 128 126 124 127 127 125 122 120 118 116 115 118 118 116 114 113 113 112
50 52 62 96 209 225 208 236 248 22 18 41 89 62 45 26 46 84 90 101 110 123 134 144 141 142 139 136 131 127 130 129 127 127 127 129 128 126 124 122 118 116 117 116 115 114 115 113 111
61 82 87 201 233 247 243 260 268 81 11 18 86 99 50 4 36 56 70 94 106 112 126 144 143 146 146 142 140 134 136 136 132 128 125 124 127 125 124 121 119 117 116 117 116 114 112 110 110
61 81 121 211 227 250 275 290 23 57 47 30 82 104 142 16 47 46 56 71 91 103 115 125 136 139 148 152 147 143 142 141 140 137 134 128 128 129 127 124 121 120 120 121 118 117 117 114 109
110 118 175 197 212 245 273 324 79 83 46 350 107 111 158 346 27 50 58 64 71 70 79 110 124 133 135 146 152 152 149 147 142 142 140 135 133 135 133 129 126 124 121 123 120 117 117 118 111
131 122 180 206 199 223 285 16 55 76 338 346 76 131 191 261 11 52 52 50 56 55 45 56 90 113 120 128 146 150 150 149 147 146 142 140 136 138 136 130 132 131 125 126 125 122 119 120 116
100 99 201 207 195 224 319 42 352 11 73 18 34 76 177 120 74 59 46 36 38 39 32 34 48 74 103 119 138 146 147 150 151 148 145 142 137 136 135 134 133 137 135 132 127 123 120 121 116
102 170 214 220 197 208 318 42 278 42 25 14 24 32 63 78 78 73 60 45 37 27 18 16 34 52 86 119 123 134 143 142 143 145 146 143 137 137 139 142 139 137 137 136 130 123 120 109 102
154 196 218 262 260 222 293 310 317 148 252 223 195 156 102 80 80 85 75 64 36 22 19 8 21 38 77 87 114 108 121 129 135 143 146 141 134 134 132 138 139 132 132 126 125 113 105 95 91
184 247 233 258 308 304 258 265 315 209 220 203 174 156 134 120 128 137 135 106 13 33 24 17 28 27 60 84 107 108 117 127 132 145 147 137 132 134 135 136 135 134 136 128 121 112 104 97 107
216 258 284 260 290 258 171 246 233 241 228 149 132 130 143 147 149 166 133 113 52 31 15 19 27 28 31 63 72 91 123 148 143 146 150 145 143 154 152 149 142 143 141 142 141 131 125 119 110
209 254 285 276 258 232 184 264 233 246 184 128 127 141 161 162 152 89 65 50 26 20 14 17 36 22 26 52 48 62 89 118 139 141 151 151 149 157 163 160 156 151 155 153 154 152 148 149 137
59 339 319 284 243 211 122 299 236 231 151 135 138 132 123 116 96 116 153 146 338 348 18 23 33 27 24 19 17 60 103 127 148 164 162 154 152 156 162 160 160 161 154 146 140 130 122 135 132
37 45 291 281 221 197 141 254 258 208 141 148 181 157 100 47 67 107 124 51 39 32 4 6 18 40 19 13 360 15 61 141 155 152 158 160 156 158 160 160 162 157 147 145 151 146 144 147 158
29 246 247 284 247 178 183 245 257 232 157 187 216 217 157 42 16 5 9 9 46 57 15 24 29 107 20 19 4 351 26 126 173 149 138 164 173 167 167 173 167 155 153 156 155 144 154 167 190
225 233 242 252 261 194 234 258 275 250 203 214 214 193 188 201 281 324 12 31 45 33 37 49 12 26 41 33 25 14 15 320 217 165 162 153 173 172 166 176 171 160 160 163 156 155 153 168 175
202 203 251 261 264 247 241 269 279 270 215 206 208 196 205 229 287 18 29 32 33 26 30 43 18 329 57 57 51 317 272 246 231 219 126 137 141 138 128 160 173 165 168 167 164 162 160 139 111
213 244 262 290 308 268 269 286 286 260 209 196 189 186 188 137 15 23 34 41 35 25 17 26 19 318 256 229 190 196 241 242 202 18 33 110 140 135 130 117 144 153 156 152 157 155 164 157 133
240 214 226 261 330 347 4 309 306 315 258 163 179 177 177 155 131 20 22 18 19 14 4 345 330 329 348 32 75 57 49 21 67 31 297 311 183 154 138 146 142 163 170 168 171 171 171 183 209
242 216 205 222 360 280 160 281 281 270 286 267 254 107 139 114 93 83 53 9 357 339 348 355 3 5 358 81 119 127 160 220 261 280 271 296 273 185 175 168 175 180 185 184 185 178 175 172 192
215 207 198 200 177 297 256 201 285 291 257 254 238 210 190 147 108 80 55 5 350 358 2 5 27 18 14 59 136 147 154 176 325 350 340 299 286 251 196 191 199 203 205 206 197 185 179 180 194
144 53 46 50 76 283 235 186 275 256 238 239 236 245 260 69 61 31 16 22 11 9 9 9 26 24 33 51 86 128 139 120 72 356 322 313 284 262 232 212 217 220 220 217 212 202 194 197 199
85 94 37 1 356 253 238 188 252 267 243 203 201 220 188 102 75 37 22 16 7 4 4 5 17 20 32 52 61 110 154 147 170 211 284 307 289 268 256 248 240 235 231 226 221 214 207 204 202
189 146 160 197 224 275 312 228 266 301 344 74 128 130 104 90 68 45 12 1 355 353 355 1 2 357 12 22 358 322 272 225 241 244 242 263 279 263 252 250 254 250 238 229 220 226 220 211 211
158 180 167 139 136 278 273 282 299 346 34 46 66 71 68 46 25 5 360 4 359 348 337 334 339 342 349 348 344 339 332 279 286 297 284 279 285 272 253 249 246 244 233 222 218 231 228 218 217
167 149 111 132 167 246 276 258 240 247 253 349 40 40 308 327 344 347 353 352 345 334 333 342 346 333 339 339 306 328 309 289 289 282 279 281 277 275 253 245 245 240 233 217 215 235 234 228 228
162 159 147 148 170 179 249 263 232 216 216 215 234 243 243 256 293 318 335 344 349 352 358 359 357 356 351 345 335 332 310 305 305 288 281 278 276 269 272 257 250 247 235 220 213 233 237 229 233
197 187 159 169 222 194 208 265 309 239 198 195 227 253 269 287 316 328 337 347 355 352 349 347 341 342 336 337 336 329 320 328 323 302 290 274 272 273 269 275 276 266 246 226 215 228 235 231 228
Height
1497 1497 1499 1501 1505 1514 1513 1505 1498 1495 1494 1493 1492 1491 1493 1497 1499 1505 1503 1501 1502 1504 1505 1506 1507 1509 1509 1510 1511 1512 1513 1514 1515 1516 1517 1518 1519 1519 1520 1521 1522 1523 1523 1524 1524 1525 1525 1526 1526
1496 1498 1500 1501 1510 1519 1513 1502 1497 1494 1493 1492 1492 1493 1494 1497 1498 1499 1500 1501 1502 1503 1505 1506 1507 1508 1509 1510 1511 1512 1513 1514 1515 1516 1517 1518 1519 1520 1520 1521 1522 1522 1523 1524 1524 1525 1526 1526 1526
1496 1497 1500 1503 1510 1513 1506 1497 1495 1493 1492 1492 1493 1494 1496 1498 1499 1499 1500 1500 1502 1503 1504 1505 1506 1508 1509 1509 1510 1512 1513 1514 1515 1516 1517 1518 1518 1519 1520 1521 1522 1522 1523 1524 1525 1525 1526 1526 1527
1496 1498 1500 1506 1507 1503 1498 1495 1493 1492 1492 1492 1493 1496 1498 1500 1500 1500 1500 1500 1502 1503 1504 1505 1506 1507 1508 1509 1510 1511 1512 1513 1514 1515 1516 1517 1518 1519 1520 1521 1522 1522 1523 1524 1524 1525 1526 1526 1527
1496 1497 1503 1508 1504 1499 1495 1494 1493 1493 1493 1493 1494 1496 1498 1500 1499 1499 1500 1500 1501 1502 1503 1504 1505 1506 1507 1508 1509 1510 1511 1512 1513 1514 1515 1516 1517 1518 1519 1520 1521 1522 1523 1524 1524 1525 1525 1526 1527
1496 1498 1508 1509 1503 1497 1495 1493 1492 1493 1493 1493 1494 1496 1498 1499 1499 1499 1499 1500 1500 1501 1502 1503 1504 1505 1506 1507 1508 1509 1510 1511 1512 1513 1514 1515 1516 1517 1518 1519 1520 1521 1522 1523 1524 1524 1525 1526 1526
1497 1500 1504 1503 1501 1498 1495 1493 1493 1493 1493 1494 1494 1496 1497 1498 1498 1499 1499 1499 1499 1500 1501 1502 1503 1504 1505 1506 1507 1508 1509 1510 1511 1512 1513 1514 1515 1516 1517 1518 1519 1521 1521 1522 1523 1524 1524 1525 1526
1495 1499 1501 1501 1499 1497 1494 1493 1493 1494 1494 1495 1495 1495 1497 1497 1498 1498 1498 1498 1498 1498 1499 1500 1502 1503 1504 1504 1506 1507 1508 1509 1510 1511 1512 1513 1514 1515 1516 1517 1518 1520 1521 1521 1522 1523 1524 1525 1525
1495 1502 1503 1498 1496 1495 1493 1493 1494 1494 1494 1494 1495 1495 1496 1497 1497 1497 1497 1497 1497 1497 1497 1498 1499 1501 1502 1503 1504 1505 1506 1507 1509 1510 1510 1511 1512 1514 1515 1516 1517 1518 1519 1520 1521 1522 1523 1524 1525
1495 1502 1497 1494 1492 1492 1492 1492 1493 1494 1494 1494 1495 1495 1496 1496 1496 1495 1495 1495 1495 1496 1496 1497 1497 1498 1500 1501 1502 1503 1504 1505 1507 1508 1509 1510 1511 1512 1513 1515 1515 1516 1518 1519 1519 1521 1522 1523 1523
1493 1496 1493 1492 1491 1491 1492 1492 1492 1493 1494 1493 1493 1493 1494 1494 1495 1495 1495 1494 1494 1495 1494 1494 1495 1496 1498 1499 1500 1501 1502 1503 1505 1506 1507 1508 1509 1510 1511 1513 1514 1515 1516 1517 1518 1519 1520 1521 1522
1493 1492 1491 1491 1491 1490 1491 1491 1492 1492 1492 1492 1492 1492 1492 1492 1493 1494 1494 1493 1493 1493 1493 1493 1493 1494 1496 1497 1498 1499 1500 1501 1502 1503 1505 1506 1507 1508 1509 1510 1512 1513 1514 1515 1516 1517 1518 1519 1520
1492 1492 1491 1490 1490 1490 1490 1490 1491 1491 1490 1490 1490 1491 1490 1491 1492 1493 1493 1493 1492 1491 1491 1491 1491 1492 1494 1495 1496 1497 1498 1499 1500 1501 1503 1504 1505 1506 1507 1508 1509 1511 1512 1513 1514 1515 1516 1517 1518
1491 1491 1490 1489 1489 1489 1489 1490 1490 1488 1489 1489 1489 1489 1490 1490 1490 1490 1491 1491 1490 1490 1490 1490 1490 1491 1492 1493 1494 1495 1496 1496 1498 1499 1500 1501 1503 1504 1505 1506 1507 1508 1509 1510 1512 1513 1514 1515 1516
1490 1491 1491 1488 1487 1488 1489 1490 1488 1487 1488 1488 1488 1488 1489 1489 1489 1488 1489 1489 1489 1488 1488 1488 1489 1489 1490 1491 1492 1492 1493 1494 1495 1496 1498 1499 1500 1501 1502 1503 1504 1506 1507 1508 1509 1510 1511 1513 1513
1491 1494 1495 1489 1487 1487 1492 1492 1487 1487 1486 1487 1487 1487 1487 1487 1487 1487 1487 1487 1487 1486 1486 1486 1487 1487 1488 1488 1489 1489 1491 1491 1492 1493 1495 1496 1497 1499 1500 1501 1502 1503 1504 1505 1506 1508 1508 1509 1511
1495 1498 1496 1491 1487 1487 1490 1490 1487 1486 1485 1486 1486 1486 1486 1485 1485 1485 1485 1485 1485 1484 1484 1484 1484 1484 1485 1485 1486 1486 1487 1488 1489 1490 1492 1493 1494 1496 1497 1498 1499 1500 1501 1503 1504 1505 1506 1507 1508
1497 1496 1494 1492 1487 1488 1489 1488 1486 1485 1485 1484 1484 1484 1484 1483 1483 1484 1483 1483 1483 1483 1482 1482 1481 1481 1482 1482 1483 1484 1484 1485 1486 1487 1488 1490 1491 1492 1493 1495 1496 1497 1498 1500 1501 1502 1503 1504 1505
1490 1492 1493 1490 1486 1488 1489 1488 1485 1483 1483 1483 1482 1482 1482 1482 1482 1482 1482 1481 1480 1480 1480 1480 1479 1479 1479 1479 1480 1480 1481 1482 1483 1484 1485 1486 1488 1489 1490 1491 1492 1493 1494 1496 1498 1499 1500 1501 1502
1489 1491 1492 1489 1486 1488 1489 1488 1483 1481 1481 1480 1480 1480 1480 1480 1480 1480 1479 1479 1479 1478 1478 1477 1476 1476 1476 1477 1477 1477 1478 1479 1480 1481 1482 1483 1484 1486 1487 1488 1489 1490 1491 1492 1494 1496 1497 1498 1499
1487 1489 1489 1489 1487 1487 1490 1488 1484 1481 1480 1479 1479 1479 1479 1479 1478 1478 1478 1477 1477 1476 1475 1475 1474 1474 1473 1474 1475 1475 1475 1476 1477 1478 1479 1480 1481 1482 1484 1484 1486 1487 1488 1489 1491 1493 1494 1494 1496
1487 1484 1485 1487 1492 1494 1492 1495 1484 1482 1480 1478 1478 1478 1477 1477 1477 1477 1476 1475 1475 1474 1474 1473 1472 1471 1471 1471 1471 1472 1472 1472 1473 1475 1476 1477 1478 1479 1481 1482 1483 1484 1485 1486 1487 1489 1490 1491 1492
1484 1483 1485 1486 1490 1495 1494 1497 1488 1483 1481 1478 1477 1477 1477 1476 1476 1475 1475 1474 1474 1473 1472 1471 1470 1469 1468 1468 1469 1469 1470 1470 1471 1472 1473 1474 1475 1476 1477 1478 1479 1480 1481 1483 1483 1484 1486 1487 1489
1482 1485 1487 1492 1496 1500 1493 1496 1489 1484 1479 1477 1476 1475 1475 1475 1475 1474 1474 1473 1472 1471 1470 1470 1468 1468 1467 1466 1466 1467 1467 1467 1468 1469 1470 1470 1471 1472 1473 1474 1475 1477 1478 1479 1480 1481 1482 1484 1485
1484 1492 1501 1501 1507 1500 1490 1491 1487 1479 1476 1475 1474 1474 1474 1474 1474 1473 1472 1471 1470 1469 1468 1468 1467 1465 1465 1465 1465 1465 1465 1465 1465 1466 1467 1467 1468 1469 1470 1470 1471 1472 1474 1475 1476 1477 1478 1480 1481
1485 1489 1498 1500 1503 1498 1491 1489 1484 1477 1475 1474 1473 1473 1473 1473 1473 1472 1471 1470 1469 1467 1466 1465 1465 1464 1463 1463 1463 1463 1463 1463 1463 1463 1463 1464 1465 1465 1466 1467 1467 1468 1470 1471 1472 1473 1474 1476 1477
1484 1488 1489 1498 1502 1502 1495 1489 1482 1477 1476 1474 1473 1472 1472 1472 1471 1471 1470 1469 1467 1466 1465 1464 1463 1462 1461 1461 1461 1460 1460 1460 1460 1460 1461 1461 1461 1462 1463 1463 1463 1465 1466 1467 1468 1469 1470 1471 1472
1482 1485 1493 1497 1498 1497 1493 1489 1483 1479 1477 1475 1474 1472 1472 1471 1470 1469 1468 1467 1466 1465 1464 1462 1461 1460 1460 1459 1459 1458 1458 1458 1458 1458 1458 1458 1458 1459 1459 1459 1459 1460 1461 1462 1463 1464 1465 1466 1467
1484 1486 1488 1495 1495 1496 1495 1486 1475 1475 1474 1474 1473 1472 1471 1471 1470 1468 1468 1467 1465 1464 1462 1461 1460 1459 1458 1457 1457 1456 1456 1455 1455 1455 1455 1455 1455 1455 1455 1455 1455 1456 1457 1458 1459 1460 1461 1461 1462
1482 1483 1487 1492 1495 1495 1494 1487 1474 1473 1472 1472 1472 1472 1471 1470 1469 1468 1467 1465 1464 1462 1461 1460 1459 1457 1456 1455 1454 1454 1454 1453 1452 1452 1452 1452 1452 1452 1452 1451 1452 1452 1453 1453 1454 1455 1456 1457 1457